This is the latest recevied weather packets stored in our database for station/object KC8ZBC. If no packets are shown the sender has not sent any weather packets the latest 1 day(s).
| Time | Temp. | Humidity | Pressure | Rain* | Wind** | Luminosity | Snow |
|---|---|---|---|---|---|---|---|
| 1777973172 | 13.89° C | 85% | 976.3 hPa | 0 mm | 0.89 m/s, 243° | 0 W/m² | - |
| 1777972872 | 13.89° C | 85% | 976.4 hPa | 0 mm | 0.89 m/s, 270° | 0 W/m² | - |
| 1777972567 | 13.89° C | 84% | 976.5 hPa | 0 mm | 0 m/s | 0 W/m² | - |
| 1777972266 | 13.89° C | 83% | 976.5 hPa | 0 mm | 1.79 m/s, 212° | 0 W/m² | - |
| 1777971963 | 14.44° C | 83% | 976.4 hPa | 0 mm | 0 m/s | 0 W/m² | - |
| 1777971661 | 14.44° C | 82% | 976.3 hPa | 0 mm | 1.79 m/s, 28° | 0 W/m² | - |
| 1777971359 | 14.44° C | 82% | 976.2 hPa | 0 mm | 0 m/s | 0 W/m² | - |
| 1777971057 | 14.44° C | 81% | 976.2 hPa | 0 mm | 0.89 m/s, 40° | 0 W/m² | - |
| 1777970754 | 14.44° C | 80% | 976.2 hPa | 0 mm | 0.45 m/s, 270° | 0 W/m² | - |
| 1777970452 | 15° C | 80% | 976.1 hPa | 0 mm | 0.45 m/s, 109° | 0 W/m² | - |
| 1777970149 | 15° C | 79% | 976 hPa | 0 mm | 0.45 m/s, 294° | 0 W/m² | - |
| 1777969846 | 15° C | 78% | 975.9 hPa | 0 mm | 0 m/s | 0 W/m² | - |
| 1777969541 | 15° C | 78% | 975.6 hPa | 0 mm | 0.89 m/s, 210° | 0 W/m² | - |
| 1777969239 | 15° C | 77% | 975.9 hPa | 0 mm | 0 m/s | 0 W/m² | - |
| 1777968935 | 15° C | 77% | 975.5 hPa | 0 mm | 0.89 m/s, 297° | 0 W/m² | - |
| 1777968632 | 15° C | 77% | 975.6 hPa | 0 mm | 0 m/s | 0 W/m² | - |
| 1777968328 | 15.56° C | 76% | 975.8 hPa | 0 mm | 0.89 m/s, 264° | 0 W/m² | - |
| 1777968025 | 15° C | 77% | 975.6 hPa | 0 mm | 0.89 m/s, 119° | 0 W/m² | - |
| 1777967721 | 15.56° C | 76% | 975.6 hPa | 0 mm | 0 m/s | 0 W/m² | - |
| 1777967418 | 15.56° C | 76% | 975.5 hPa | 0 mm | 0.89 m/s, 250° | 0 W/m² | - |
| 1777967115 | 15° C | 76% | 975.4 hPa | 0 mm | 2.24 m/s, 284° | 0 W/m² | - |
| 1777966812 | 15° C | 76% | 975.3 hPa | 0 mm | 0 m/s | 0 W/m² | - |
| 1777966510 | 15° C | 77% | 975.2 hPa | 0 mm | 0.89 m/s, 157° | 0 W/m² | - |
| 1777966208 | 15.56° C | 76% | 975.1 hPa | 0 mm | 1.34 m/s, 280° | 0 W/m² | - |
| 1777965903 | 15° C | 77% | 975.1 hPa | 0 mm | 0 m/s | 0 W/m² | - |
* Rain latest hour (hover to see other rain measurements)
** Current wind speed in m/s (hover to see current wind gust speed)